Flag for U.S.A. Weather past 2 weeks in Vista, California, U.S.A.

Now
70 °F

Clear.


Feels Like: 69 °F
Forecast: 64 / 84 °F
Wind: No wind

Location: McClellan-Palomar Airport

Current Time: Aug 30, 2014 at 11:46:38 PM

Latest Report: Aug 30, 2014 at 10:53 PM


Visibility: 9 mi

Pressure: 29.77 "Hg

Humidity: 84%

Dew point: 65 °F

Location of VistaLocation

Historic Weather in Vista — Graph

°F

Vista temperature yesterday

Maximum temperature yesterday: 77 °F (at 1:53 PM)
Minimum temperature yesterday: 67 °F (at 5:53 AM)
Average temperature yesterday: 71 °F

Past Weeks' High & Low Weather Summary

 TemperatureHumidityPressure
High83 °F (Aug 27, 2:53 PM)90% (Aug 23, 6:53 AM)30.01 "Hg (Aug 23, 6:53 AM)
Low63 °F (Aug 23, 6:53 AM)40% (Aug 27, 2:53 PM)29.75 "Hg (Aug 30, 6:53 PM)
Average71 °F73%29.90 "Hg
* Reported Aug 15 9:53 PM — Aug 30 9:53 PM, Vista, Weather by CustomWeather, © 2014

Note: Actual official high and low records may vary slightly from our data, if they occured in-between our weather recording intervals... More about our weather records

Advertising

Vista weather history for previous 24 hours

 ConditionsComfort  
Time TempWeatherWind HumidityBarometerVisibility
9:53 PM
Aug 30
71 °FClear.No wind84%29.76 "Hg9 mi
8:53 PM71 °FClear.3 mph81%29.76 "Hg10 mi
7:53 PM71 °FSunny.No wind81%29.75 "Hg10 mi
6:53 PM73 °FSunny.6 mph76%29.75 "Hg10 mi
5:53 PM74 °FSunny.5 mph74%29.75 "Hg10 mi
4:53 PM76 °FSunny.7 mph67%29.75 "Hg10 mi
3:53 PM76 °FSunny.8 mph67%29.75 "Hg10 mi
2:53 PM77 °FSunny.7 mph64%29.76 "Hg10 mi
1:53 PM76 °FSunny.10 mph67%29.79 "Hg10 mi
12:53 PM75 °FSunny.7 mph66%29.80 "Hg10 mi
11:53 AM73 °FSunny.7 mph71%29.81 "Hg9 mi
10:53 AM73 °FSunny.8 mph71%29.83 "Hg8 mi
9:53 AM71 °FSunny.No wind76%29.83 "Hg8 mi
8:53 AM68 °FLow clouds.No wind84%29.83 "Hg6 mi
7:53 AM67 °FLow clouds.No wind85%29.82 "Hg6 mi
6:53 AM67 °FLow clouds.3 mph85%29.82 "Hg6 mi
5:53 AM67 °FLow clouds.3 mph87%29.81 "Hg7 mi
4:53 AM67 °FLow clouds.No wind87%29.80 "Hg7 mi
3:53 AM68 °FLow clouds.No wind84%29.80 "Hg8 mi
2:53 AM68 °FLow clouds.No wind84%29.80 "Hg9 mi
2:03 AM68 °FPassing clouds.No wind83%29.81 "Hg8 mi
12:53 AM68 °FClear.No wind84%29.82 "Hg9 mi
12:01 AM68 °FPassing clouds.No wind83%29.83 "Hg10 mi
Weather by CustomWeather, © 2014

See weather overviewHow to use our weather pages